Location: Biberach+an+der+Riss
(48.0937°N, 9.7888°E)
Time: 08:43:27
(UTC+01:00)

ISS - Pass Details

Date: 13 November 2017
Orbit: 402 x 407 km, 51.6° (Epoch: 24 November)

Event Time Altitude Azimuth Distance (km) Brightness Sun altitude
Exits shadow 06:35:11 12° 282° (WNW) 1,356 -1.9 -8.5°
Maximum altitude 06:38:01 41° 213° (SSW) 601 -3.1 -8.0°
Drops below altitude 10° 06:41:06 10° 141° (SE) 1,450 0.0 -7.5°
Sets 06:43:14 0° 134° (SE) 2,306 1.4 -7.2°
